Back to catalog

USA 194

AliveMilitaryLEO
NORAD 31701·PAYLOAD·🇺🇸 United States

Launched Jun 15, 2007 from Cape Canaveral Space Force Station

Loading…

Next Passes (next 24 hours)

TLE

StaleSource: Mike McCants

Epoch: Sep 3, 2026, 19:18 UTC

1 31701U 07027A   26246.80443680 0.00000000  00000-0  00000-0 0    04
2 31701  63.3660 124.5002 0454668  25.4567 334.5433 13.40990357    00

Track USA 194 in real time with AllMySat

Download on the App Store